| time (UTC) | temp C | wind direction | speed KPH | gust KPH | rain 1hr cm | rain 24hr cm | rain mn cm | humidity % | barometer mb |
| 20260505122017 | 16 | 279 | 0.0 | 6.4 | 0.00 | 0.08 | 0.05 | 81 | 1008.1 |
| 20260505121518 | 17 | 56 | 1.6 | 4.8 | 0.00 | 0.08 | 0.05 | 80 | 1008.2 |
| 20260505121018 | 17 | 9 | 1.6 | 4.8 | 0.00 | 0.08 | 0.05 | 81 | 1008.3 |
| 20260505120518 | 17 | 285 | 3.2 | 8.0 | 0.00 | 0.08 | 0.05 | 82 | 1008.4 |
| 20260505120018 | 17 | 29 | 4.8 | 8.0 | 0.00 | 0.08 | 0.05 | 82 | 1008.4 |
| 20260505115518 | 16 | 355 | 0.0 | 8.0 | 0.00 | 0.08 | 0.05 | 82 | 1008.4 |
| 20260505115017 | 16 | 281 | 3.2 | 6.4 | 0.00 | 0.08 | 0.05 | 82 | 1008.4 |
| 20260505114518 | 16 | 327 | 1.6 | 6.4 | 0.00 | 0.08 | 0.05 | 83 | 1008.4 |
| 20260505114017 | 16 | 273 | 1.6 | 3.2 | 0.00 | 0.08 | 0.05 | 83 | 1008.5 |
| 20260505113519 | 16 | 51 | 1.6 | 6.4 | 0.00 | 0.08 | 0.05 | 82 | 1008.5 |
| 20260505113017 | 16 | 303 | 1.6 | 4.8 | 0.00 | 0.08 | 0.05 | 82 | 1008.6 |
| 20260505112518 | 16 | 327 | 1.6 | 4.8 | 0.00 | 0.08 | 0.05 | 82 | 1008.6 |
| 20260505112018 | 16 | 286 | 0.0 | 4.8 | 0.00 | 0.08 | 0.05 | 83 | 1008.6 |
| 20260505111517 | 16 | 273 | 0.0 | 3.2 | 0.00 | 0.08 | 0.05 | 83 | 1008.6 |
| 20260505111019 | 16 | 317 | 1.6 | 4.8 | 0.00 | 0.08 | 0.05 | 83 | 1008.7 |
| 20260505110517 | 16 | 300 | 1.6 | 4.8 | 0.00 | 0.08 | 0.05 | 82 | 1008.6 |
| 20260505102018 | 17 | 333 | 1.6 | 3.2 | 0.00 | 0.08 | 0.05 | 79 | 1008.8 |
| 20260505101519 | 16 | 290 | 1.6 | 6.4 | 0.00 | 0.08 | 0.05 | 78 | 1008.8 |
| 20260505101017 | 17 | 314 | 1.6 | 4.8 | 0.00 | 0.08 | 0.05 | 78 | 1008.7 |
| 20260505100519 | 17 | 343 | 4.8 | 6.4 | 0.00 | 0.08 | 0.05 | 78 | 1008.7 |
| 20260505100019 | 17 | 307 | 3.2 | 8.0 | 0.00 | 0.08 | 0.05 | 77 | 1008.7 |
| 20260505095518 | 17 | 355 | 1.6 | 4.8 | 0.00 | 0.08 | 0.05 | 77 | 1008.7 |
| 20260505095019 | 17 | 273 | 3.2 | 4.8 | 0.00 | 0.08 | 0.05 | 78 | 1008.8 |
| 20260505094517 | 17 | 290 | 3.2 | 8.0 | 0.00 | 0.08 | 0.05 | 76 | 1008.8 |
| 20260505094019 | 17 | 233 | 6.4 | 9.7 | 0.00 | 0.08 | 0.05 | 78 | 1008.9 |
| 20260505093518 | 16 | 252 | 1.6 | 4.8 | 0.00 | 0.08 | 0.05 | 78 | 1008.9 |
| 20260505093017 | 16 | 232 | 1.6 | 3.2 | 0.00 | 0.08 | 0.05 | 78 | 1009.0 |
| 20260505092517 | 16 | 234 | 1.6 | 4.8 | 0.00 | 0.08 | 0.05 | 78 | 1009.0 |
| 20260505092017 | 16 | 248 | 0.0 | 6.4 | 0.00 | 0.08 | 0.05 | 78 | 1009.1 |
| 20260505091517 | 17 | 141 | 1.6 | 3.2 | 0.00 | 0.08 | 0.05 | 80 | 1009.1 |
| 20260505091018 | 16 | 88 | 1.6 | 3.2 | 0.00 | 0.08 | 0.05 | 80 | 1009.2 |
| 20260505090517 | 16 | 186 | 1.6 | 4.8 | 0.00 | 0.08 | 0.05 | 82 | 1009.2 |
| 20260505090018 | 16 | 226 | 3.2 | 6.4 | 0.00 | 0.08 | 0.05 | 82 | 1009.3 |
| 20260505085518 | 16 | 253 | 1.6 | 4.8 | 0.00 | 0.08 | 0.05 | 82 | 1009.3 |
| 20260505085018 | 16 | 304 | 1.6 | 6.4 | 0.00 | 0.08 | 0.05 | 82 | 1009.3 |
| 20260505084518 | 16 | 288 | 4.8 | 8.0 | 0.00 | 0.08 | 0.05 | 84 | 1009.3 |
| 20260505084017 | 15 | 258 | 4.8 | 6.4 | 0.00 | 0.08 | 0.05 | 84 | 1009.3 |
| 20260505083518 | 15 | 234 | 0.0 | 4.8 | 0.03 | 0.08 | 0.05 | 84 | 1009.4 |
| 20260505083019 | 15 | 265 | 6.4 | 8.0 | 0.03 | 0.08 | 0.05 | 86 | 1009.3 |
| 20260505082518 | 15 | 263 | 1.6 | 4.8 | 0.05 | 0.08 | 0.05 | 87 | 1009.3 |
| 20260505082018 | 15 | 17 | 0.0 | 4.8 | 0.05 | 0.08 | 0.05 | 86 | 1009.5 |
| 20260505081517 | 14 | 252 | 0.0 | 3.2 | 0.05 | 0.08 | 0.05 | 86 | 1009.4 |
| 20260505081018 | 14 | 134 | 0.0 | 1.6 | 0.05 | 0.08 | 0.05 | 86 | 1009.4 |
| 20260505080518 | 14 | 120 | 0.0 | 1.6 | 0.05 | 0.08 | 0.05 | 86 | 1009.5 |
| 20260505080018 | 14 | 162 | 0.0 | 1.6 | 0.05 | 0.08 | 0.05 | 87 | 1009.5 |
| 20260505075517 | 14 | 134 | 0.0 | 0.0 | 0.05 | 0.08 | 0.05 | 87 | 1009.5 |
| 20260505075017 | 14 | 126 | 0.0 | 0.0 | 0.05 | 0.08 | 0.05 | 87 | 1009.5 |
| 20260505074518 | 14 | 123 | 0.0 | 0.0 | 0.05 | 0.08 | 0.05 | 87 | 1009.6 |
| 20260505074017 | 14 | 135 | 0.0 | 1.6 | 0.05 | 0.08 | 0.05 | 87 | 1009.7 |
| 20260505073517 | 13 | 136 | 0.0 | 1.6 | 0.05 | 0.05 | 0.05 | 87 | 1009.7 |
| 20260505073017 | 13 | 238 | 0.0 | 3.2 | 0.05 | 0.05 | 0.05 | 87 | 1009.7 |
| 20260505072518 | 13 | 217 | 0.0 | 3.2 | 0.03 | 0.05 | 0.03 | 86 | 1009.8 |
| 20260505072017 | 13 | 192 | 1.6 | 3.2 | 0.03 | 0.05 | 0.03 | 86 | 1009.9 |
| 20260505071518 | 13 | 224 | 0.0 | 1.6 | 0.03 | 0.05 | 0.03 | 86 | 1009.9 |
| 20260505071017 | 13 | 148 | 3.2 | 4.8 | 0.00 | 0.03 | 0.00 | 86 | 1009.9 |
| 20260505070517 | 13 | 150 | 3.2 | 6.4 | 0.00 | 0.03 | 0.00 | 87 | 1010.0 |
| 20260505070019 | 13 | 147 | 1.6 | 4.8 | 0.00 | 0.03 | 0.00 | 87 | 1010.0 |
| 20260505065518 | 13 | 180 | 1.6 | 4.8 | 0.00 | 0.03 | 0.00 | 86 | 1010.0 |
| 20260505065019 | 13 | 188 | 3.2 | 6.4 | 0.00 | 0.03 | 0.00 | 87 | 1010.0 |
| 20260505064517 | 13 | 234 | 1.6 | 3.2 | 0.00 | 0.03 | 0.00 | 87 | 1010.0 |
| 20260505064019 | 13 | 188 | 3.2 | 4.8 | 0.00 | 0.03 | 0.00 | 88 | 1010.0 |
| 20260505063519 | 13 | 163 | 1.6 | 8.0 | 0.00 | 0.03 | 0.00 | 88 | 1010.0 |
| 20260505063017 | 13 | 223 | 1.6 | 8.0 | 0.00 | 0.03 | 0.00 | 88 | 1010.0 |
| 20260505062517 | 13 | 185 | 0.0 | 4.8 | 0.00 | 0.03 | 0.00 | 89 | 1009.9 |
| 20260505062017 | 13 | 252 | 1.6 | 3.2 | 0.00 | 0.03 | 0.00 | 89 | 1009.9 |
| 20260505061517 | 13 | 190 | 0.0 | 3.2 | 0.00 | 0.03 | 0.00 | 89 | 1009.9 |
| 20260505061018 | 13 | 200 | 1.6 | 3.2 | 0.00 | 0.03 | 0.00 | 89 | 1009.9 |
| 20260505060517 | 12 | 174 | 1.6 | 3.2 | 0.00 | 0.03 | 0.00 | 89 | 1009.9 |
| 20260505060018 | 12 | 157 | 0.0 | 3.2 | 0.00 | 0.03 | 0.00 | 89 | 1009.8 |
| 20260505055517 | 12 | 188 | 0.0 | 3.2 | 0.00 | 0.03 | 0.00 | 89 | 1009.8 |
| 20260505055017 | 12 | 141 | 0.0 | 1.6 | 0.00 | 0.03 | 0.00 | 89 | 1009.8 |
| 20260505054517 | 12 | 128 | 1.6 | 3.2 | 0.00 | 0.03 | 0.00 | 89 | 1009.8 |
| 20260505054017 | 12 | 119 | 1.6 | 3.2 | 0.00 | 0.03 | 0.00 | 89 | 1009.8 |
| 20260505053518 | 12 | 176 | 1.6 | 4.8 | 0.00 | 0.03 | 0.00 | 89 | 1009.8 |
| 20260505053018 | 12 | 236 | 1.6 | 4.8 | 0.00 | 0.03 | 0.00 | 89 | 1009.7 |
| 20260505052517 | 12 | 236 | 1.6 | 3.2 | 0.00 | 0.03 | 0.00 | 90 | 1009.7 |
| 20260505052018 | 12 | 355 | 0.0 | 3.2 | 0.00 | 0.03 | 0.00 | 90 | 1009.7 |
| 20260505051519 | 12 | 321 | 0.0 | 3.2 | 0.00 | 0.03 | 0.00 | 90 | 1009.7 |
| 20260505051018 | 12 | 298 | 0.0 | 4.8 | 0.00 | 0.03 | 0.00 | 90 | 1009.6 |
| 20260505050518 | 12 | 310 | 1.6 | 6.4 | 0.00 | 0.03 | 0.00 | 90 | 1009.7 |
| 20260505041518 | 11 | 53 | 0.0 | 0.0 | 0.00 | 0.03 | 0.00 | 89 | 1009.6 |
| 20260505041018 | 11 | 51 | 0.0 | 0.0 | 0.00 | 0.03 | 0.00 | 89 | 1009.6 |
| 20260505040517 | 11 | 51 | 0.0 | 0.0 | 0.00 | 0.03 | 0.00 | 89 | 1009.8 |
| 20260505040018 | 10 | 51 | 1.6 | 3.2 | 0.00 | 0.03 | 0.00 | 89 | 1009.7 |
| 20260505035518 | 10 | 128 | 0.0 | 0.0 | 0.00 | 0.03 | 0.00 | 89 | 1009.8 |
| 20260505035018 | 10 | 128 | 0.0 | 1.6 | 0.00 | 0.03 | 0.00 | 88 | 1009.8 |
| 20260505034518 | 10 | 128 | 0.0 | 0.0 | 0.00 | 0.03 | 0.00 | 88 | 1009.9 |
| 20260505034019 | 10 | 128 | 0.0 | 0.0 | 0.00 | 0.03 | 0.00 | 88 | 1009.9 |
| 20260505033518 | 10 | 128 | 0.0 | 1.6 | 0.00 | 0.03 | 0.00 | 88 | 1009.9 |
| 20260505033019 | 10 | 128 | 1.6 | 3.2 | 0.00 | 0.03 | 0.00 | 88 | 1009.9 |
| 20260505032517 | 10 | 107 | 0.0 | 0.0 | 0.00 | 0.03 | 0.00 | 88 | 1009.9 |
| 20260505031752 | 11 | 107 | 0.0 | 1.6 | 0.00 | 0.03 | 0.00 | 89 | 1009.9 |
| 20260505031251 | 11 | 101 | 0.0 | 0.0 | 0.00 | 0.03 | 0.00 | 89 | 1010.0 |
| 20260505030751 | 11 | 101 | 0.0 | 1.6 | 0.00 | 0.03 | 0.00 | 88 | 1010.0 |
| 20260505030251 | 11 | 100 | 0.0 | 1.6 | 0.00 | 0.03 | 0.00 | 88 | 1010.0 |
| 20260505025751 | 11 | 102 | 0.0 | 3.2 | 0.00 | 0.03 | 0.00 | 89 | 1010.1 |
| 20260505025250 | 11 | 131 | 1.6 | 3.2 | 0.00 | 0.03 | 0.00 | 88 | 1010.2 |
| 20260505024751 | 11 | 156 | 1.6 | 4.8 | 0.00 | 0.03 | 0.00 | 88 | 1010.1 |
| 20260505024250 | 11 | 134 | 0.0 | 3.2 | 0.00 | 0.03 | 0.00 | 88 | 1010.1 |
| 20260505023751 | 10 | 182 | 0.0 | 1.6 | 0.00 | 0.03 | 0.00 | 88 | 1010.1 |
| 20260505023251 | 10 | 219 | 0.0 | 3.2 | 0.00 | 0.03 | 0.00 | 88 | 1010.2 |
| 20260505022750 | 10 | 203 | 0.0 | 1.6 | 0.00 | 0.03 | 0.00 | 88 | 1010.2 |
| 20260505022251 | 10 | 63 | 0.0 | 1.6 | 0.00 | 0.03 | 0.00 | 87 | 1010.3 |
| 20260505021751 | 10 | 63 | 0.0 | 0.0 | 0.00 | 0.03 | 0.00 | 87 | 1010.3 |
| 20260505021251 | 10 | 63 | 0.0 | 0.0 | 0.00 | 0.03 | 0.00 | 87 | 1010.4 |
| 20260505020751 | 10 | 63 | 0.0 | 0.0 | 0.00 | 0.03 | 0.00 | 87 | 1010.4 |
| 20260505020250 | 10 | 63 | 0.0 | 1.6 | 0.00 | 0.03 | 0.00 | 87 | 1010.6 |
| 20260505015751 | 10 | 63 | 1.6 | 3.2 | 0.00 | 0.03 | 0.00 | 87 | 1010.6 |
| 20260505015250 | 10 | 61 | 1.6 | 3.2 | 0.00 | 0.03 | 0.00 | 87 | 1010.8 |
| 20260505014750 | 11 | 322 | 0.0 | 0.0 | 0.00 | 0.03 | 0.00 | 86 | 1010.8 |
| 20260505014251 | 11 | 321 | 0.0 | 1.6 | 0.00 | 0.03 | 0.00 | 87 | 1010.8 |
| 20260505013750 | 11 | 321 | 0.0 | 1.6 | 0.00 | 0.03 | 0.00 | 87 | 1010.8 |
| 20260505013252 | 11 | 325 | 0.0 | 1.6 | 0.00 | 0.03 | 0.00 | 87 | 1010.8 |
| 20260505012751 | 11 | 84 | 0.0 | 1.6 | 0.00 | 0.03 | 0.00 | 86 | 1010.9 |
| 20260505012250 | 11 | 153 | 0.0 | 1.6 | 0.00 | 0.03 | 0.00 | 86 | 1010.9 |
| 20260505011750 | 11 | 153 | 0.0 | 0.0 | 0.00 | 0.03 | 0.00 | 86 | 1011.1 |
| 20260505011251 | 11 | 153 | 0.0 | 0.0 | 0.00 | 0.03 | 0.00 | 86 | 1011.1 |
| 20260505010751 | 11 | 170 | 0.0 | 0.0 | 0.00 | 0.03 | 0.00 | 86 | 1011.2 |
| 20260505010250 | 11 | 170 | 0.0 | 0.0 | 0.00 | 0.03 | 0.00 | 86 | 1011.2 |
| 20260505005750 | 11 | 170 | 0.0 | 3.2 | 0.00 | 0.03 | 0.00 | 86 | 1011.3 |
| 20260505005251 | 11 | 134 | 0.0 | 1.6 | 0.00 | 0.03 | 0.00 | 86 | 1011.3 |
| 20260505004751 | 11 | 130 | 0.0 | 0.0 | 0.00 | 0.03 | 0.00 | 85 | 1011.3 |
| 20260505004250 | 11 | 130 | 0.0 | 0.0 | 0.00 | 0.03 | 0.00 | 85 | 1011.5 |
| 20260505003751 | 11 | 130 | 0.0 | 3.2 | 0.00 | 0.03 | 0.00 | 85 | 1011.4 |
| 20260505003251 | 11 | 210 | 0.0 | 1.6 | 0.00 | 0.03 | 0.00 | 85 | 1011.5 |
| 20260505002751 | 12 | 115 | 1.6 | 3.2 | 0.00 | 0.03 | 0.00 | 85 | 1011.5 |
| 20260505002251 | 12 | 157 | 0.0 | 1.6 | 0.00 | 0.03 | 0.00 | 85 | 1011.6 |
| 20260505001750 | 12 | 148 | 0.0 | 1.6 | 0.00 | 0.03 | 0.00 | 85 | 1011.6 |
| 20260505001252 | 12 | 148 | 0.0 | 3.2 | 0.00 | 0.03 | 0.00 | 85 | 1011.6 |
| 20260505000751 | 12 | 148 | 0.0 | 3.2 | 0.00 | 0.03 | 0.00 | 84 | 1011.6 |
| 20260505000252 | 12 | 148 | 0.0 | 0.0 | 0.00 | 0.03 | 0.00 | 84 | 1011.6 |
| 20260504235750 | 12 | 148 | 0.0 | 0.0 | 0.00 | 0.03 | 0.00 | 84 | 1011.7 |
| 20260504235252 | 12 | 148 | 0.0 | 1.6 | 0.00 | 0.03 | 0.00 | 84 | 1011.7 |
| 20260504234750 | 12 | 148 | 0.0 | 0.0 | 0.00 | 0.03 | 0.00 | 84 | 1011.8 |
| 20260504234251 | 12 | 148 | 0.0 | 1.6 | 0.00 | 0.03 | 0.00 | 84 | 1011.8 |
| 20260504233750 | 12 | 148 | 0.0 | 1.6 | 0.00 | 0.03 | 0.00 | 84 | 1011.9 |
| 20260504233250 | 12 | 148 | 0.0 | 0.0 | 0.00 | 0.03 | 0.00 | 84 | 1012.0 |
| 20260504232750 | 12 | 148 | 0.0 | 1.6 | 0.00 | 0.03 | 0.00 | 83 | 1012.0 |
| 20260504232250 | 12 | 148 | 0.0 | 1.6 | 0.00 | 0.03 | 0.00 | 83 | 1011.9 |
| 20260504231751 | 13 | 159 | 0.0 | 3.2 | 0.00 | 0.03 | 0.00 | 83 | 1012.1 |
| 20260504231251 | 13 | 306 | 0.0 | 1.6 | 0.00 | 0.03 | 0.00 | 82 | 1012.0 |
| 20260504230750 | 13 | 306 | 0.0 | 3.2 | 0.00 | 0.03 | 0.00 | 82 | 1012.0 |
| 20260504230251 | 13 | 306 | 0.0 | 1.6 | 0.00 | 0.03 | 0.00 | 82 | 1012.0 |
| 20260504225750 | 13 | 306 | 0.0 | 1.6 | 0.00 | 0.03 | 0.00 | 82 | 1012.1 |
| 20260504225251 | 13 | 297 | 0.0 | 3.2 | 0.00 | 0.03 | 0.00 | 82 | 1012.1 |
| 20260504224751 | 13 | 84 | 1.6 | 3.2 | 0.00 | 0.03 | 0.00 | 82 | 1012.1 |
| 20260504224251 | 13 | 108 | 0.0 | 3.2 | 0.00 | 0.03 | 0.00 | 82 | 1012.1 |
| 20260504223750 | 14 | 92 | 1.6 | 3.2 | 0.00 | 0.03 | 0.00 | 82 | 1012.1 |
| 20260504223251 | 14 | 80 | 0.0 | 3.2 | 0.00 | 0.03 | 0.00 | 82 | 1012.1 |
| 20260504222750 | 14 | 61 | 0.0 | 3.2 | 0.00 | 0.03 | 0.00 | 82 | 1012.1 |
| 20260504222251 | 14 | 84 | 1.6 | 4.8 | 0.00 | 0.03 | 0.00 | 82 | 1012.1 |
| 20260504221751 | 14 | 64 | 0.0 | 3.2 | 0.00 | 0.03 | 0.00 | 82 | 1012.2 |
| 20260504221250 | 14 | 23 | 1.6 | 3.2 | 0.00 | 0.03 | 0.00 | 82 | 1012.3 |
| 20260504220750 | 14 | 360 | 0.0 | 3.2 | 0.00 | 0.03 | 0.00 | 82 | 1012.3 |
| 20260504220250 | 14 | 153 | 1.6 | 3.2 | 0.00 | 0.03 | 0.00 | 82 | 1012.4 |
| 20260504215752 | 14 | 192 | 3.2 | 4.8 | 0.00 | 0.03 | 0.03 | 82 | 1012.5 |
| 20260504215251 | 14 | 103 | 0.0 | 1.6 | 0.00 | 0.03 | 0.03 | 83 | 1012.5 |
| 20260504214752 | 14 | 101 | 1.6 | 6.4 | 0.00 | 0.03 | 0.03 | 83 | 1012.5 |
| 20260504214250 | 14 | 146 | 0.0 | 4.8 | 0.00 | 0.03 | 0.03 | 83 | 1012.6 |
| 20260504213752 | 14 | 155 | 4.8 | 6.4 | 0.00 | 0.03 | 0.03 | 83 | 1012.7 |
| 20260504213251 | 14 | 175 | 3.2 | 6.4 | 0.00 | 0.03 | 0.03 | 84 | 1012.8 |
| 20260504212751 | 13 | 189 | 0.0 | 3.2 | 0.00 | 0.03 | 0.03 | 84 | 1012.8 |
| 20260504212251 | 13 | 158 | 1.6 | 4.8 | 0.00 | 0.03 | 0.03 | 84 | 1012.8 |
| 20260504211750 | 13 | 117 | 0.0 | 1.6 | 0.00 | 0.03 | 0.03 | 84 | 1012.8 |
| 20260504211251 | 13 | 117 | 1.6 | 3.2 | 0.00 | 0.03 | 0.03 | 84 | 1012.8 |
| 20260504210750 | 13 | 126 | 1.6 | 3.2 | 0.00 | 0.03 | 0.03 | 84 | 1012.8 |
| 20260504210250 | 13 | 119 | 0.0 | 1.6 | 0.00 | 0.03 | 0.03 | 84 | 1013.0 |
| 20260504205750 | 13 | 118 | 0.0 | 1.6 | 0.00 | 0.03 | 0.03 | 84 | 1012.9 |
| 20260504205250 | 13 | 119 | 1.6 | 1.6 | 0.00 | 0.03 | 0.03 | 84 | 1013.0 |
| 20260504204751 | 13 | 115 | 0.0 | 1.6 | 0.00 | 0.03 | 0.03 | 84 | 1013.0 |
| 20260504204250 | 13 | 115 | 0.0 | 1.6 | 0.00 | 0.03 | 0.03 | 83 | 1013.0 |
| 20260504203751 | 14 | 115 | 0.0 | 1.6 | 0.00 | 0.03 | 0.03 | 83 | 1013.0 |
| 20260504203251 | 14 | 115 | 0.0 | 1.6 | 0.00 | 0.03 | 0.03 | 83 | 1013.0 |
| 20260504202751 | 14 | 140 | 0.0 | 1.6 | 0.00 | 0.03 | 0.03 | 83 | 1013.0 |
| 20260504202251 | 14 | 140 | 0.0 | 1.6 | 0.00 | 0.03 | 0.03 | 83 | 1013.0 |
| 20260504201750 | 14 | 133 | 0.0 | 1.6 | 0.00 | 0.03 | 0.03 | 83 | 1013.0 |
| 20260504201250 | 14 | 133 | 0.0 | 1.6 | 0.00 | 0.03 | 0.03 | 83 | 1013.0 |
| 20260504200751 | 14 | 141 | 0.0 | 3.2 | 0.00 | 0.03 | 0.03 | 83 | 1013.0 |
| 20260504200251 | 14 | 138 | 1.6 | 4.8 | 0.03 | 0.03 | 0.03 | 83 | 1013.0 |
| 20260504195750 | 14 | 136 | 1.6 | 3.2 | 0.03 | 0.03 | 0.03 | 82 | 1013.0 |
| 20260504195251 | 14 | 148 | 1.6 | 3.2 | 0.03 | 0.03 | 0.03 | 82 | 1012.9 |
| 20260504194751 | 14 | 125 | 0.0 | 1.6 | 0.03 | 0.03 | 0.03 | 82 | 1012.8 |
| 20260504194251 | 14 | 176 | 0.0 | 1.6 | 0.03 | 0.03 | 0.03 | 81 | 1012.8 |
| 20260504193750 | 14 | 160 | 0.0 | 3.2 | 0.03 | 0.03 | 0.03 | 81 | 1012.7 |
| 20260504193251 | 15 | 117 | 3.2 | 4.8 | 0.03 | 0.03 | 0.03 | 81 | 1012.7 |
| 20260504192750 | 15 | 138 | 3.2 | 4.8 | 0.03 | 0.03 | 0.03 | 80 | 1012.6 |
| 20260504192250 | 15 | 136 | 1.6 | 6.4 | 0.03 | 0.03 | 0.03 | 80 | 1012.5 |
| 20260504191750 | 15 | 115 | 0.0 | 3.2 | 0.03 | 0.03 | 0.03 | 79 | 1012.6 |
| 20260504191250 | 15 | 115 | 0.0 | 1.6 | 0.03 | 0.03 | 0.03 | 79 | 1012.4 |
| 20260504190751 | 15 | 123 | 0.0 | 3.2 | 0.03 | 0.03 | 0.03 | 79 | 1012.4 |
| 20260504190250 | 15 | 126 | 1.6 | 3.2 | 0.00 | 0.00 | 0.00 | 79 | 1012.4 |
| 20260504185751 | 15 | 155 | 3.2 | 4.8 | 0.00 | 0.00 | 0.00 | 79 | 1012.5 |
| 20260504185250 | 15 | 179 | 1.6 | 3.2 | 0.00 | 0.00 | 0.00 | 78 | 1012.5 |
| 20260504184750 | 15 | 150 | 1.6 | 3.2 | 0.00 | 0.00 | 0.00 | 77 | 1012.6 |
| 20260504184250 | 15 | 171 | 0.0 | 3.2 | 0.00 | 0.00 | 0.00 | 77 | 1012.6 |
| 20260504183750 | 15 | 89 | 1.6 | 4.8 | 0.00 | 0.00 | 0.00 | 77 | 1012.8 |
| 20260504183251 | 16 | 92 | 4.8 | 9.7 | 0.00 | 0.00 | 0.00 | 75 | 1012.9 |
| 20260504182751 | 16 | 76 | 3.2 | 8.0 | 0.00 | 0.00 | 0.00 | 75 | 1012.9 |
| 20260504182250 | 16 | 128 | 1.6 | 3.2 | 0.00 | 0.00 | 0.00 | 73 | 1013.0 |
| 20260504181752 | 16 | 134 | 0.0 | 4.8 | 0.00 | 0.00 | 0.00 | 72 | 1013.0 |
| 20260504181250 | 16 | 171 | 4.8 | 8.0 | 0.00 | 0.00 | 0.00 | 71 | 1013.0 |
| 20260504180751 | 16 | 186 | 3.2 | 6.4 | 0.00 | 0.00 | 0.00 | 70 | 1013.0 |
| 20260504180251 | 17 | 223 | 0.0 | 9.7 | 0.00 | 0.00 | 0.00 | 70 | 1013.0 |
| 20260504175751 | 17 | 180 | 1.6 | 9.7 | 0.00 | 0.00 | 0.00 | 68 | 1013.0 |
| 20260504175250 | 17 | 179 | 1.6 | 12.9 | 0.00 | 0.00 | 0.00 | 67 | 1013.0 |
| 20260504174751 | 17 | 217 | 4.8 | 6.4 | 0.00 | 0.00 | 0.00 | 66 | 1013.0 |
| 20260504174250 | 17 | 166 | 3.2 | 6.4 | 0.00 | 0.00 | 0.00 | 64 | 1013.0 |
| 20260504173751 | 17 | 226 | 3.2 | 11.3 | 0.00 | 0.00 | 0.00 | 62 | 1012.9 |
| 20260504173251 | 18 | 174 | 4.8 | 12.9 | 0.00 | 0.00 | 0.00 | 62 | 1013.0 |
| 20260504172751 | 18 | 200 | 9.7 | 14.5 | 0.00 | 0.00 | 0.00 | 61 | 1013.0 |
| 20260504172251 | 18 | 205 | 4.8 | 9.7 | 0.00 | 0.00 | 0.00 | 61 | 1013.0 |
| 20260504171750 | 18 | 226 | 3.2 | 9.7 | 0.00 | 0.00 | 0.00 | 61 | 1013.0 |
| 20260504171251 | 18 | 210 | 4.8 | 11.3 | 0.00 | 0.00 | 0.00 | 61 | 1013.0 |
| 20260504170750 | 18 | 224 | 4.8 | 9.7 | 0.00 | 0.00 | 0.00 | 61 | 1013.0 |
| 20260504170250 | 18 | 234 | 4.8 | 6.4 | 0.00 | 0.00 | 0.00 | 62 | 1013.0 |
| 20260504160251 | 19 | 27 | 0.0 | 3.2 | 0.00 | 0.00 | 0.00 | 55 | 1012.7 |
| 20260504150751 | 19 | 321 | 0.0 | 4.8 | 0.00 | 0.00 | 0.00 | 52 | 1012.8 |
| 20260504150251 | 19 | 350 | 1.6 | 3.2 | 0.00 | 0.00 | 0.00 | 53 | 1012.8 |
| 20260504141250 | 20 | 360 | 1.6 | 6.4 | 0.00 | 0.00 | 0.00 | 52 | 1012.7 |
| 20260504140750 | 20 | 323 | 3.2 | 4.8 | 0.00 | 0.00 | 0.00 | 50 | 1012.7 |
| 20260504140250 | 20 | 340 | 1.6 | 4.8 | 0.00 | 0.00 | 0.00 | 52 | 1012.7 |
| 20260504130751 | 21 | 107 | 8.0 | 11.3 | 0.00 | 0.00 | 0.00 | 48 | 1012.8 |
| 20260504130251 | 21 | 291 | 4.8 | 11.3 | 0.00 | 0.00 | 0.00 | 46 | 1012.8 |